Overview Statistics Trail Chart Weather Telemetry Raw packets
 

This is the latest recevied weather packets stored in our database for station/object WP3OF-2. If no packets are shown the sender has not sent any weather packets the latest 10 day(s).

<< 92 93 94 95 96 97 98 >>
Time Temp. Humidity Pressure Rain* Wind** Luminosity Snow
1787934480 25° C 90% 1026.3 hPa 0 mm - 175 W/m² -
1787934175 24.44° C 90% 1026.3 hPa 0 mm - 209 W/m² -
1787933874 25° C 89% 1026.3 hPa 0 mm - 1033 W/m² -
1787933568 24.44° C 90% 1026.7 hPa 0 mm - 888 W/m² -
1787933263 25° C 89% 1026.7 hPa 0 mm - 309 W/m² -
1787932963 25° C 89% 1026.3 hPa 0 mm - 1004 W/m² -
1787932662 24.44° C 90% 1026.7 hPa 0 mm - 281 W/m² -
1787932356 24.44° C 90% 1026.7 hPa 0 mm - 324 W/m² -
1787932051 25° C 89% 1026.7 hPa 0 mm - 657 W/m² -
1787931750 24.44° C 91% 1026.7 hPa 0 mm - 840 W/m² -
1787931450 24.44° C 91% 1026.7 hPa 0 mm - 840 W/m² -
1787931145 24.44° C 91% 1026.7 hPa 0 mm - 882 W/m² -
1787930844 24.44° C 92% 1026.7 hPa 0 mm - 323 W/m² -
1787930544 24.44° C 93% 1027.1 hPa 0 mm - 436 W/m² -
1787930233 23.89° C 93% 1026.7 hPa 0 mm - 383 W/m² -
1787929932 23.89° C 94% 1026.7 hPa 0 mm - 154 W/m² -
1787929632 23.33° C 93% 1026.7 hPa 0 mm - 925 W/m² -
1787929326 23.33° C 95% 1026.7 hPa 0 mm - 200 W/m² -
1787929024 23.89° C 94% 1027.1 hPa 0 mm - 299 W/m² -
1787928720 23.89° C 95% 1027.1 hPa 0 mm - 498 W/m² -
1787928417 23.89° C 95% 1027.1 hPa 0 mm - 498 W/m² -
1787927959 23.89° C 95% 1027.1 hPa 0 mm - 881 W/m² -
1787927653 23.89° C 95% 1027.1 hPa 0 mm - 881 W/m² -
1787927348 23.89° C 94% 1027.1 hPa 0 mm - 963 W/m² -
1787927044 23.89° C 95% 1027.1 hPa 0 mm - 575 W/m² -

* Rain latest hour (hover to see other rain measurements)
** Current wind speed in m/s (hover to see current wind gust speed)